Location: Conflandey
(47.7287°N, 6.0456°E)
Time: 03:22:20
(UTC+00:00)

Iridium 4 Rocket - Pass Details

Date: 24 October 2021
Orbit: 586 x 903 km, 86.9° (Epoch: 28 November)

Event Time Altitude Azimuth Distance (km) Brightness Sun altitude
Rises 16:58:03 0° 5° (N) 2,979 6.4 -5.2°
Reaches altitude 10° 17:00:25 10° 15° (NNE) 2,107 5.5 -5.6°
Maximum altitude 17:04:39 33° 80° (E) 1,176 4.0 -6.3°
Drops below altitude 10° 17:09:12 10° 145° (SE) 2,275 5.7 -7.1°
Sets 17:11:50 0° 154° (SSE) 3,252 6.6 -7.5°
